Miscellaneous Local Product
Issued by NWS Hastings, NE

Home | Current Version | Previous Version | Graphics & Text | Print | Product List | Glossary On
Versions: 1 2 3 4 5 6 7 8 9 10 11 12 13 14 15 16 17 18 19 20 21 22 23 24 25 26 27 28 29 30 31 32 33 34 35 36 37 38 39 40 41 42 43 44 45 46 47 48 49 50
165
AXUS43 KGID 242002
MISGRI

GID CWA HOURLY WEATHER ROUNDUP
NATIONAL WEATHER SERVICE HASTINGS NE
300 PM CDT SAT JUN 24 2017

NOTE: "FAIR" INDICATES FEW OR NO CLOUDS BELOW 12,000 FEET WITH NO
SIGNIFICANT WEATHER AND/OR OBSTRUCTIONS TO VISIBILITY.

...SOUTH CENTRAL NEBRASKA...

CITY           SKY/WX    TMP DP  RH WIND       PRES   REMARKS
GRAND ISLAND   MOSUNNY   79  38  22 W17       30.22F
HASTINGS       SUNNY     77  36  22 SW8G22    30.25F
KEARNEY        CLOUDY    75  37  25 SW20      30.25F
ORD            MOSUNNY   77  32  19 NW16G25   30.20F
YORK           MOSUNNY   77  37  24 W13       30.21F
AURORA         PTSUNNY   76  40  26 W13G21    30.21F
LEXINGTON      CLOUDY    71  41  33 SW14G20   30.27F
HOLDREGE       CLOUDY    71  40  31 SW9       30.27F
HEBRON         CLOUDY    78  37  22 W9G18     30.24S

...NEBRASKA PANHANDLE...

CITY           SKY/WX    TMP DP  RH WIND       PRES   REMARKS
CHADRON        PTSUNNY   71  35  26 N10       30.29F
ALLIANCE       MOSUNNY   75  34  22 NW8       30.28F
SCOTTSBLUFF    SUNNY     74  35  24 NW8       30.29F
SIDNEY         MOSUNNY   75  34  22 NW5       30.31F

...WESTERN AND NORTH CENTRAL NEBRASKA...

CITY           SKY/WX    TMP DP  RH WIND       PRES   REMARKS
VALENTINE      MOSUNNY   77  26  15 NW17G29   30.23F
AINSWORTH      PTSUNNY   73  34  23 NW18G25   30.23F
ONEILL         MOSUNNY   76  36  23 NW21G26   30.19F
BROKEN BOW     CLOUDY    78  36  21 W12       30.22F
IMPERIAL       CLOUDY    70  40  33 S7        30.29S
NORTH PLATTE   CLOUDY    72  40  31 SW14      30.27F
MCCOOK         CLOUDY    74  44  34 S7        30.27F

...EASTERN NEBRASKA...

CITY           SKY/WX    TMP DP  RH WIND       PRES   REMARKS
NORFOLK        MOSUNNY   76  34  21 NW18G30   30.16F
SO SIOUX CITY  PTSUNNY   78  40  25 NW20      30.11R
TEKAMAH        PTSUNNY   80  36  20 W22G30    30.13F
COLUMBUS       MOSUNNY   79  38  22 W14G22    30.18F
ALBION         MOSUNNY   76  32  20 NW15G21   30.19S
OMAHA EPPLEY   MOSUNNY   81  38  21 W21G30    30.14F
OFFUTT AFB     MOSUNNY   77  39  26 W15G24    30.15F
MILLARD        MOSUNNY   80  42  25 NW17G24   30.16F
LINCOLN        PTSUNNY   78  39  24 W13       30.20F
NEBRASKA CITY  MOSUNNY   77  45  32 NW12      30.19F
BEATRICE       MOSUNNY   78  40  25 W14G23    30.21F
FALLS CITY     SUNNY     77  43  29 NW16G22   30.19F

...NORTHERN KANSAS...

CITY           SKY/WX    TMP DP  RH WIND       PRES   REMARKS
GOODLAND       CLOUDY    70  51  51 S10       30.29F
HILL CITY      CLOUDY    77  50  38 SE5       30.26F
NORTON         MOCLDY    75  37  25 S6        30.26F
PHILLIPSBURG   CLOUDY    75  39  27 S3        30.26F
SMITH CENTER   MOSUNNY   75  39  27 SW7       30.27F
HAYS           PTSUNNY   79  52  38 VRB6      30.23F
RUSSELL        CLOUDY    78  47  33 CALM      30.23F
CONCORDIA      CLOUDY    78  37  22 SW6G16    30.24F
SALINA         SUNNY     84  44  24 W10       30.23F
TOPEKA         SUNNY     78  47  33 VRB3      30.22F



USA.gov is the U.S. government's official web portal to all federal, state and local government web resources and services.